Wind_Speed
36 37 37 38 38 38 38 38 38 37 37 37 37 37 37 37 38 38 38 38 38 38 39 39 39 39 38 38 38 38 38 38 38 38 38 38 38 38 38 39 39 39 40
38 38 38 39 39 39 39 39 39 39 39 39 39 39 39 39 40 40 40 40 40 40 41 41 41 41 40 40 40 40 40 40 40 40 40 40 39 39 39 39 40 40 41
39 40 40 40 41 41 42 42 41 41 41 41 41 41 41 41 42 42 42 42 42 42 42 43 43 42 42 42 42 41 41 41 41 41 40 40 40 40 40 40 40 40 41
41 42 42 42 42 42 43 43 43 43 43 43 43 43 44 43 43 43 44 44 44 44 44 43 43 44 44 44 43 43 42 42 42 42 42 42 41 41 41 42 42 42 42
42 43 43 44 44 44 44 44 44 45 44 45 45 45 45 45 45 45 45 45 46 46 45 45 45 45 45 45 45 45 44 43 43 44 44 43 43 43 43 43 43 43 43
44 44 45 45 46 46 46 46 47 46 46 46 47 46 46 46 46 47 46 46 46 46 46 46 46 46 46 46 46 46 46 46 46 46 46 45 46 45 46 45 45 44 44
45 45 45 46 46 47 47 48 48 48 48 48 48 48 48 48 47 47 47 48 48 47 47 47 47 47 48 48 47 48 48 48 48 48 48 48 48 48 47 47 47 46 47
47 47 47 47 47 47 47 48 48 48 49 49 49 49 48 48 49 48 49 49 49 49 49 49 49 50 49 50 49 49 50 50 50 50 50 50 50 50 49 49 49 49 49
48 48 48 47 48 48 48 48 49 49 49 49 50 50 50 50 50 49 49 49 49 49 50 50 50 50 50 51 51 51 51 51 51 51 51 51 51 51 51 50 50 50 50
49 49 49 48 48 49 49 49 50 50 50 50 50 51 51 51 51 50 50 50 50 50 51 51 51 51 51 51 51 51 51 51 51 51 51 51 50 50 50 50 51 51 51
48 48 48 48 49 49 49 50 50 50 50 50 50 51 51 51 51 51 51 51 51 51 52 52 52 51 51 51 51 51 51 51 51 51 52 51 51 51 51 51 51 51 51
47 48 48 49 49 49 50 50 50 51 51 51 52 52 52 52 52 52 52 52 51 51 52 52 52 52 52 52 52 51 51 51 51 52 52 52 52 52 52 51 51 52 52
47 47 48 49 50 50 50 50 51 51 51 52 52 53 53 53 53 54 54 53 53 52 52 52 53 53 53 53 52 52 51 51 52 52 52 52 52 52 52 53 52 52 52
46 47 48 48 49 50 51 50 51 51 51 52 52 52 53 53 54 55 55 55 55 54 53 52 53 53 53 53 52 52 52 53 52 52 52 53 52 52 52 53 52 52 52
45 46 47 47 47 48 49 50 50 51 51 51 51 52 53 53 54 54 55 55 55 54 53 52 52 52 52 52 53 53 53 53 53 53 53 53 53 52 52 52 51 51 51
45 45 46 47 47 48 49 50 51 51 52 52 52 53 54 55 55 55 55 55 54 54 53 51 51 52 52 52 53 53 52 52 52 52 52 52 52 51 51 51 52 51 50
43 44 45 46 46 47 48 49 51 52 53 53 54 54 55 55 54 54 53 53 53 53 53 51 51 52 52 52 52 52 52 51 51 51 51 50 50 49 50 50 50 50 49
40 41 42 43 44 45 47 48 49 50 51 52 53 54 54 53 52 52 51 52 52 53 52 51 51 51 51 52 51 51 51 51 50 50 49 49 48 48 48 48 48 48 48
39 39 40 41 42 43 44 44 45 47 48 49 50 50 50 50 49 50 50 50 50 51 51 50 50 50 50 50 50 50 50 49 49 49 48 48 47 47 47 46 46 46 46
38 39 40 40 40 41 42 42 43 44 45 46 47 47 47 47 47 48 48 48 49 49 49 48 48 48 48 48 49 48 48 48 48 47 47 47 47 46 45 45 44 44 44
38 38 39 39 39 40 40 40 41 42 43 43 43 44 45 45 46 46 46 47 46 46 47 47 47 47 47 47 47 46 46 46 46 46 45 45 45 44 44 43 43 43 43
37 37 37 37 38 38 38 39 40 40 41 41 41 42 42 43 43 43 44 44 45 45 46 46 46 45 45 45 44 44 44 44 43 43 43 42 42 41 41 41 41 42 41
34 34 35 36 36 36 37 37 37 38 39 39 39 39 40 40 40 40 41 42 43 44 44 44 44 43 43 43 42 41 41 40 40 39 39 39 39 38 38 38 38 39 39
33 33 33 34 34 34 35 36 36 36 36 36 37 37 37 37 38 38 39 39 40 41 41 41 41 40 40 40 40 40 39 38 37 37 37 36 36 36 36 36 36 35 35
31 32 32 32 31 32 33 33 33 34 34 34 34 34 34 34 35 35 35 36 36 36 37 37 37 37 37 36 37 36 36 36 35 34 34 34 33 33 33 33 33 33 32
29 30 30 30 31 31 32 32 32 31 31 32 32 32 32 32 32 33 33 33 32 33 33 34 35 35 34 33 34 34 34 34 34 33 32 32 30 30 30 30 30 30 30
Wind_Direction
260 261 261 262 263 263 264 265 265 266 267 268 269 268 268 269 270 270 271 272 272 272 273 273 273 274 274 274 274 274 274 274 274 274 274 274 273 273 273 273 273 273 272
260 261 262 262 263 264 265 265 265 266 267 269 270 269 269 269 270 271 272 272 272 272 272 272 272 272 273 273 273 273 273 273 273 273 273 273 273 273 273 273 273 273 273
261 262 262 263 263 264 264 265 266 267 268 269 270 270 270 270 271 271 272 272 272 272 271 271 271 272 272 273 273 273 273 273 273 273 273 273 274 274 274 274 274 273 273
262 262 263 263 264 264 264 265 266 267 267 268 269 270 269 269 270 270 271 272 272 273 272 271 271 271 272 273 273 273 273 273 273 273 273 273 273 274 274 274 274 274 274
263 263 264 264 264 265 265 266 266 267 268 269 269 269 269 269 270 271 271 272 272 272 272 271 271 272 272 272 272 272 272 272 272 273 273 272 273 273 274 274 274 273 273
265 264 265 265 265 266 266 266 266 267 268 268 269 269 269 270 271 271 270 271 271 271 271 271 271 272 272 272 272 272 271 272 272 272 273 272 273 273 273 273 273 273 273
266 267 267 267 267 267 267 266 266 267 268 268 268 269 270 270 271 271 271 271 271 271 271 272 272 272 272 272 272 272 271 272 272 272 272 272 273 273 273 272 272 273 273
266 267 268 268 268 268 268 268 268 268 268 268 269 269 269 270 271 272 272 271 271 272 272 272 273 273 273 273 272 272 271 272 272 272 272 273 273 273 272 272 273 273 273
266 267 267 268 268 268 268 268 268 268 269 269 269 269 269 269 270 271 272 272 272 272 272 273 273 274 273 273 273 272 272 273 272 272 272 273 273 273 272 273 273 273 273
267 266 267 267 268 268 269 269 269 268 269 269 269 270 270 270 270 270 271 272 272 272 272 273 273 272 272 272 271 272 272 272 272 272 272 272 273 273 273 273 273 273 272
268 267 267 267 268 268 269 269 269 269 269 269 270 270 270 271 271 271 270 272 272 272 272 272 272 271 271 271 271 271 270 271 271 271 271 272 273 273 273 274 274 273 272
268 269 268 267 268 268 269 269 269 269 269 270 270 270 270 271 272 272 272 272 272 272 273 272 272 271 272 271 271 271 270 270 270 271 271 272 272 273 273 274 274 274 273
269 269 270 269 268 268 269 270 270 270 270 270 270 270 271 271 272 272 273 272 272 272 273 273 273 273 272 271 271 271 270 270 271 272 272 272 273 272 273 273 274 273 273
269 269 270 270 270 269 269 270 270 270 270 270 270 271 271 272 273 273 274 273 272 271 272 273 273 272 272 272 271 271 271 271 271 271 272 272 273 273 273 274 273 273 273
269 270 270 271 271 270 269 269 270 270 271 271 271 271 272 273 274 274 275 274 273 271 270 271 272 272 272 272 272 272 272 272 272 272 272 272 272 272 272 272 272 272 272
270 270 270 271 272 271 271 270 270 271 271 271 271 271 273 274 274 275 275 274 273 272 271 271 271 272 272 271 272 272 272 272 272 272 272 272 272 271 271 272 272 271 271
271 271 272 273 273 273 273 272 271 271 271 272 272 273 273 274 274 275 274 274 273 273 272 271 272 272 272 272 272 272 272 272 272 273 273 272 272 271 271 272 271 270 271
273 273 274 274 274 275 274 274 273 272 272 273 273 274 274 274 274 274 274 274 274 274 273 271 271 272 272 272 272 272 272 272 272 272 272 272 271 271 272 272 271 270 270
274 275 276 276 277 277 277 276 276 275 274 274 274 274 274 273 273 273 274 274 275 274 273 272 271 272 272 272 272 272 272 272 272 271 271 271 271 272 272 271 271 270 270
276 277 277 278 279 278 278 278 278 278 277 276 276 274 274 273 273 274 274 274 275 274 273 273 272 272 272 272 272 272 271 271 271 271 270 271 271 271 271 270 270 270 269
278 278 279 279 279 280 279 279 280 281 279 278 277 276 275 274 274 274 275 275 276 275 274 273 273 272 271 271 272 272 271 271 271 271 270 270 270 270 270 270 270 269 269
280 279 279 280 281 281 281 281 282 282 281 279 278 277 276 277 276 276 275 276 276 275 274 273 272 271 271 271 272 272 272 271 271 270 270 270 270 269 269 269 270 269 269
281 280 280 281 282 283 283 283 283 283 282 280 279 279 279 278 277 277 278 278 277 276 275 274 273 271 271 271 271 271 271 271 271 270 269 269 270 269 269 269 270 269 269
281 281 282 283 283 284 284 284 284 284 283 281 280 280 279 279 279 279 279 280 279 277 274 273 273 271 270 270 270 270 270 270 271 270 269 269 269 268 268 269 269 269 269
282 282 283 283 284 285 286 286 286 285 285 284 282 281 281 282 282 281 281 281 279 278 275 273 273 272 270 269 269 268 268 269 269 269 269 268 267 267 267 267 267 267 268
283 284 284 284 286 287 288 288 288 288 286 285 284 283 283 283 283 282 282 283 282 279 276 275 273 271 269 268 269 268 269 269 269 268 267 268 267 265 264 264 264 265 266
Height
5790 5791 5791 5792 5793 5793 5794 5794 5794 5794 5794 5794 5794 5794 5794 5794 5794 5793 5793 5792 5792 5791 5791 5790 5790 5789 5788 5787 5786 5786 5785 5784 5783 5782 5781 5780 5779 5779 5778 5777 5776 5775 5775
5782 5783 5783 5784 5784 5785 5785 5785 5785 5786 5786 5786 5786 5786 5786 5785 5785 5785 5784 5784 5783 5782 5782 5781 5781 5780 5779 5778 5777 5777 5776 5775 5774 5773 5772 5771 5770 5769 5769 5768 5767 5766 5765
5773 5774 5775 5775 5775 5776 5776 5776 5777 5777 5777 5777 5777 5777 5777 5776 5776 5776 5775 5774 5774 5773 5772 5772 5771 5770 5769 5769 5768 5767 5766 5765 5764 5764 5763 5762 5761 5760 5759 5758 5758 5757 5756
5764 5765 5766 5766 5766 5767 5767 5767 5767 5767 5767 5768 5768 5767 5767 5766 5766 5766 5765 5764 5764 5763 5762 5762 5761 5760 5760 5759 5758 5757 5756 5755 5755 5754 5753 5753 5752 5751 5750 5749 5748 5747 5746
5755 5756 5756 5757 5757 5757 5758 5758 5758 5757 5757 5757 5757 5757 5757 5756 5756 5756 5755 5754 5753 5752 5752 5752 5751 5750 5749 5748 5748 5747 5746 5745 5745 5744 5743 5742 5742 5741 5740 5739 5738 5737 5736
5745 5746 5746 5747 5747 5747 5747 5748 5748 5747 5747 5747 5747 5746 5746 5745 5745 5745 5744 5743 5742 5742 5741 5740 5740 5739 5738 5737 5737 5736 5735 5735 5734 5733 5732 5732 5731 5730 5729 5728 5727 5726 5725
5735 5736 5736 5736 5736 5737 5737 5737 5737 5737 5736 5736 5736 5736 5736 5734 5734 5733 5732 5732 5731 5731 5730 5729 5728 5728 5727 5726 5726 5725 5724 5723 5722 5722 5721 5720 5719 5718 5718 5717 5716 5715 5714
5725 5725 5725 5725 5725 5726 5726 5726 5726 5725 5725 5725 5724 5724 5725 5724 5723 5722 5721 5720 5719 5719 5718 5717 5717 5716 5715 5714 5714 5713 5712 5711 5710 5709 5709 5708 5707 5706 5705 5705 5704 5703 5702
5713 5714 5713 5714 5714 5714 5714 5714 5714 5714 5714 5713 5712 5712 5712 5712 5712 5711 5709 5708 5707 5706 5706 5705 5704 5703 5703 5702 5701 5700 5699 5698 5697 5696 5696 5695 5694 5693 5692 5692 5691 5690 5689
5702 5702 5702 5702 5702 5702 5702 5702 5702 5701 5701 5701 5700 5699 5699 5698 5698 5699 5698 5696 5695 5694 5693 5692 5691 5690 5689 5689 5688 5687 5686 5685 5684 5683 5682 5682 5681 5680 5680 5679 5678 5677 5676
5690 5690 5690 5690 5690 5690 5690 5689 5689 5689 5688 5688 5687 5686 5686 5685 5684 5684 5685 5684 5682 5681 5679 5678 5677 5676 5676 5675 5674 5673 5672 5671 5671 5670 5669 5669 5668 5668 5667 5666 5665 5664 5663
5678 5678 5678 5678 5678 5677 5677 5677 5676 5676 5675 5675 5674 5673 5673 5672 5671 5670 5670 5670 5669 5667 5665 5664 5663 5662 5661 5660 5660 5659 5658 5658 5657 5657 5656 5655 5655 5654 5653 5652 5652 5650 5649
5666 5666 5666 5665 5665 5665 5664 5664 5663 5663 5662 5661 5661 5660 5659 5658 5657 5656 5655 5656 5655 5654 5652 5651 5649 5648 5647 5646 5645 5645 5644 5644 5643 5643 5642 5642 5641 5640 5639 5639 5638 5636 5635
5654 5654 5653 5653 5652 5652 5651 5650 5650 5649 5648 5648 5647 5646 5645 5644 5643 5641 5640 5640 5640 5640 5639 5637 5635 5633 5632 5631 5631 5630 5630 5629 5629 5628 5628 5627 5627 5626 5625 5624 5623 5622 5621
5642 5642 5641 5640 5639 5638 5638 5637 5636 5636 5635 5634 5633 5632 5631 5630 5628 5626 5625 5624 5624 5624 5626 5624 5621 5619 5617 5617 5616 5615 5615 5615 5614 5613 5613 5612 5612 5611 5610 5609 5608 5607 5606
5630 5629 5628 5627 5627 5626 5625 5624 5623 5622 5621 5620 5619 5618 5617 5615 5614 5612 5610 5608 5607 5607 5609 5610 5607 5605 5603 5602 5601 5601 5600 5600 5599 5598 5598 5597 5596 5596 5595 5594 5593 5592 5592
5618 5617 5616 5615 5614 5613 5612 5610 5609 5608 5607 5606 5605 5603 5602 5600 5599 5597 5595 5593 5592 5591 5592 5594 5592 5590 5588 5588 5587 5586 5585 5585 5584 5583 5583 5582 5582 5581 5580 5580 5579 5578 5577
5606 5605 5604 5602 5601 5600 5598 5597 5596 5594 5593 5591 5590 5588 5587 5585 5584 5582 5580 5579 5578 5576 5576 5578 5578 5575 5574 5573 5572 5571 5571 5570 5570 5569 5568 5568 5567 5567 5566 5565 5565 5564 5564
5595 5593 5592 5591 5589 5587 5586 5584 5582 5580 5579 5577 5575 5574 5572 5570 5569 5568 5566 5565 5563 5562 5561 5561 5562 5561 5559 5558 5557 5557 5556 5556 5555 5555 5554 5554 5553 5553 5552 5552 5551 5551 5550
5584 5582 5581 5579 5577 5576 5574 5572 5570 5567 5565 5563 5561 5560 5558 5557 5555 5554 5552 5551 5549 5548 5547 5547 5547 5546 5545 5544 5543 5543 5542 5541 5541 5541 5540 5540 5540 5539 5539 5539 5539 5538 5537
5573 5571 5570 5568 5566 5564 5562 5560 5557 5555 5552 5550 5548 5546 5545 5543 5542 5540 5539 5538 5536 5534 5533 5533 5532 5532 5531 5530 5529 5528 5528 5528 5528 5527 5527 5527 5527 5527 5526 5526 5526 5526 5525
5562 5560 5558 5557 5555 5552 5550 5548 5545 5543 5540 5538 5536 5533 5532 5530 5529 5527 5526 5524 5522 5521 5520 5519 5519 5518 5518 5517 5516 5515 5514 5514 5515 5515 5514 5514 5514 5514 5514 5514 5514 5513 5513
5551 5549 5548 5546 5544 5541 5539 5536 5534 5531 5529 5526 5524 5522 5520 5518 5516 5515 5513 5511 5509 5507 5506 5505 5505 5504 5504 5504 5503 5502 5501 5501 5502 5502 5502 5503 5502 5503 5502 5502 5502 5502 5502
5542 5540 5538 5535 5533 5531 5528 5525 5523 5520 5518 5515 5513 5511 5509 5507 5505 5503 5501 5499 5497 5495 5493 5492 5492 5492 5491 5491 5490 5490 5490 5490 5490 5490 5490 5491 5491 5492 5492 5492 5492 5492 5492
5532 5530 5528 5526 5523 5521 5518 5515 5513 5510 5508 5505 5502 5500 5498 5496 5494 5492 5490 5488 5486 5483 5481 5481 5480 5480 5479 5479 5479 5479 5479 5479 5480 5480 5480 5481 5481 5482 5482 5482 5481 5482 5482
5523 5521 5519 5517 5514 5512 5509 5506 5503 5501 5498 5496 5493 5491 5489 5487 5484 5482 5480 5478 5476 5474 5472 5471 5470 5469 5469 5469 5469 5469 5469 5469 5470 5471 5471 5471 5472 5472 5473 5473 5472 5473 5473